WB4FAY-4 Weather Reports


time (UTC)temp
C
wind
direction
speed
KPH
gust
KPH
rain 1hr
cm
rain 24hr
cm
rain mn
cm
humidity
%
barometer
mb
20260507195517 21 265 4.8 6.4 0.00 0.00 0.05 72 1014.4
20260507195017 21 210 1.6 8.0 0.00 0.00 0.05 70 1014.5
20260507194517 21 339 4.8 9.7 0.00 0.00 0.05 74 1014.7
20260507194017 21 336 4.8 6.4 0.00 0.00 0.05 71 1014.7
20260507193517 20 148 1.6 6.4 0.00 0.00 0.05 74 1014.7
20260507193018 20 360 1.6 11.3 0.00 0.00 0.05 75 1014.6
20260507192517 20 337 4.8 9.7 0.00 0.00 0.05 75 1014.6
20260507192018 20 27 8.0 6.4 0.00 0.00 0.05 76 1014.8
20260507191517 20 93 0.0 4.8 0.00 0.00 0.05 78 1014.9
20260507191017 20 97 4.8 6.4 0.00 0.00 0.05 76 1014.8
20260507190517 20 104 0.0 9.7 0.00 0.00 0.05 75 1014.7
20260507190018 20 325 4.8 11.3 0.00 0.00 0.05 76 1014.8
20260507185517 20 353 9.7 9.7 0.00 0.00 0.05 77 1014.8
20260507185017 19 13 6.4 11.3 0.00 0.00 0.05 78 1014.7
20260507184517 18 333 3.2 14.5 0.00 0.00 0.05 78 1015.0
20260507184017 18 340 6.4 12.9 0.00 0.00 0.05 79 1014.9
20260507183517 18 271 1.6 8.0 0.00 0.00 0.05 80 1015.2
20260507183017 18 3 1.6 12.9 0.00 0.00 0.05 80 1015.2
20260507182517 18 320 4.8 12.9 0.00 0.00 0.05 81 1015.3
20260507182017 18 308 4.8 14.5 0.00 0.00 0.05 82 1015.5
20260507181517 18 360 0.0 9.7 0.00 0.00 0.05 83 1015.5
20260507181017 18 359 6.4 16.1 0.00 0.00 0.05 84 1015.5
20260507180517 18 278 3.2 12.9 0.00 0.00 0.05 85 1015.6
20260507180017 18 4 3.2 8.0 0.00 0.00 0.05 86 1015.4
20260507175517 17 4 3.2 11.3 0.00 0.00 0.05 86 1015.5
20260507175017 17 350 9.7 12.9 0.00 0.00 0.05 86 1015.7
20260507174516 17 34 11.3 4.8 0.00 0.00 0.05 89 1015.7
20260507174017 17 289 3.2 3.2 0.00 0.00 0.05 89 1015.7
20260507173517 17 322 3.2 6.4 0.00 0.00 0.05 90 1015.8
20260507173017 17 247 0.0 8.0 0.00 0.00 0.05 91 1015.9
20260507172517 17 337 3.2 9.7 0.00 0.00 0.05 92 1015.9
20260507172017 17 342 1.6 16.1 0.00 0.00 0.05 93 1015.9
20260507171517 16 312 0.0 8.0 0.00 0.00 0.05 94 1016.0
20260507171017 16 239 1.6 8.0 0.00 0.00 0.05 95 1015.9
20260507170517 16 47 0.0 4.8 0.00 0.00 0.05 95 1016.0
20260507170017 16 7 0.0 9.7 0.00 0.00 0.05 95 1016.1
20260507165517 16 342 8.0 8.0 0.00 0.00 0.05 95 1016.2
20260507165017 16 312 1.6 8.0 0.00 0.00 0.05 95 1016.3
20260507164517 16 343 1.6 6.4 0.00 0.00 0.05 95 1016.1
20260507164017 16 349 6.4 9.7 0.00 0.00 0.05 95 1016.0
20260507163517 16 312 1.6 6.4 0.00 0.00 0.05 96 1015.9
20260507163017 16 335 3.2 8.0 0.00 0.00 0.05 96 1015.8
20260507162517 16 318 3.2 9.7 0.00 0.00 0.05 96 1015.8
20260507162017 16 281 6.4 6.4 0.00 0.00 0.05 96 1015.7
20260507161517 16 360 1.6 11.3 0.00 0.00 0.05 96 1015.7
20260507161017 16 45 9.7 8.0 0.00 0.00 0.05 96 1015.7
20260507160517 16 339 8.0 6.4 0.00 0.00 0.05 96 1015.7
20260507160017 16 0 0.0 0.0 0.00 0.00 0.05 96 1015.5
20260507155517 16 346 0.0 9.7 0.00 0.00 0.05 96 1015.3
20260507155017 16 306 0.0 4.8 0.00 0.00 0.05 97 1015.6
20260507154517 16 296 0.0 9.7 0.00 0.00 0.05 97 1015.4
20260507154017 16 339 1.6 9.7 0.00 0.00 0.05 97 1015.4
20260507153517 16 1 4.8 9.7 0.00 0.00 0.05 97 1015.3
20260507153017 16 298 0.0 12.9 0.00 0.00 0.05 97 1015.3
20260507152517 16 186 1.6 6.4 0.00 0.00 0.05 97 1015.3
20260507152017 16 347 0.0 12.9 0.00 0.00 0.05 97 1015.1
20260507151517 16 62 6.4 11.3 0.00 0.00 0.05 97 1015.1
20260507151017 16 356 4.8 14.5 0.00 0.00 0.05 97 1015.2
20260507150517 16 56 3.2 8.0 0.00 0.00 0.05 97 1015.2
20260507150017 16 330 1.6 6.4 0.00 0.00 0.05 97 1015.1
20260507145517 16 1 0.0 8.0 0.00 0.00 0.05 97 1014.9
20260507145017 16 113 4.8 3.2 0.00 0.00 0.05 97 1014.9
20260507144518 16 275 1.6 8.0 0.00 0.00 0.05 97 1014.8
20260507144017 16 346 4.8 8.0 0.00 0.00 0.05 97 1014.9
20260507143517 16 352 4.8 8.0 0.00 0.00 0.05 97 1014.9
20260507143017 16 315 0.0 4.8 0.00 0.00 0.05 98 1014.9
20260507142517 16 344 0.0 6.4 0.00 0.00 0.05 98 1015.0
20260507142017 16 360 0.0 6.4 0.00 0.00 0.05 98 1014.9
20260507141517 16 232 0.0 1.6 0.00 0.00 0.05 98 1014.8
20260507141017 16 347 1.6 8.0 0.00 0.00 0.05 98 1014.8
20260507140517 16 270 0.0 6.4 0.00 0.00 0.05 98 1014.7
20260507140018 16 25 0.0 11.3 0.00 0.00 0.05 98 1014.7
20260507135517 16 34 3.2 11.3 0.00 0.00 0.05 98 1014.5
20260507135017 16 353 0.0 11.3 0.00 0.00 0.05 98 1014.5
20260507134517 16 1 0.0 4.8 0.00 0.00 0.05 98 1014.5
20260507134017 16 0 1.6 0.0 0.00 0.00 0.05 98 1014.6
20260507133517 16 0 0.0 0.0 0.00 0.00 0.05 98 1014.6
20260507133017 16 0 0.0 0.0 0.00 0.00 0.05 98 1014.5
20260507132517 16 0 0.0 0.0 0.00 0.00 0.05 98 1014.4
20260507132017 16 23 0.0 11.3 0.00 0.00 0.05 98 1014.2
20260507131517 16 17 6.4 6.4 0.00 0.00 0.05 98 1014.1
20260507131017 16 34 0.0 8.0 0.00 0.00 0.05 98 1014.2
20260507130517 16 114 0.0 8.0 0.00 0.00 0.05 98 1014.2
20260507130017 16 90 4.8 9.7 0.00 0.00 0.05 98 1013.9
20260507125517 16 85 0.0 11.3 0.00 0.00 0.05 98 1013.8
20260507125017 16 0 0.0 0.0 0.00 0.00 0.05 98 1013.9
20260507124517 16 0 0.0 0.0 0.00 0.00 0.05 98 1013.9
20260507124017 16 102 0.0 1.6 0.00 0.00 0.05 98 1013.8
20260507123517 16 360 0.0 6.4 0.00 0.00 0.05 98 1013.8
20260507123018 16 27 0.0 14.5 0.00 0.00 0.05 98 1013.9
20260507122517 16 360 0.0 11.3 0.00 0.00 0.05 98 1013.6
20260507122017 16 359 0.0 11.3 0.00 0.00 0.05 98 1013.5
20260507121517 16 280 0.0 4.8 0.00 0.00 0.05 98 1013.4
20260507121017 16 344 0.0 8.0 0.00 0.00 0.05 98 1013.2
20260507120517 16 326 0.0 0.0 0.00 0.00 0.05 98 1012.9
20260507120017 16 0 0.0 0.0 0.00 0.00 0.05 98 1012.9
20260507115518 16 336 0.0 4.8 0.00 0.00 0.05 98 1012.8
20260507115017 15 353 0.0 6.4 0.00 0.00 0.03 98 1012.9
20260507114517 16 102 0.0 1.6 0.00 0.00 0.03 98 1012.9
20260507114017 16 113 0.0 3.2 0.00 0.00 0.03 98 1012.9
20260507113517 16 349 0.0 12.9 0.00 0.00 0.03 98 1012.8
20260507113017 15 360 1.6 12.9 0.00 0.00 0.03 98 1012.7
20260507112517 16 23 8.0 8.0 0.00 0.00 0.03 98 1012.7
20260507112017 16 342 0.0 6.4 0.00 0.00 0.03 98 1012.7
20260507111518 15 18 4.8 11.3 0.00 0.00 0.03 98 1012.6
20260507111017 15 31 0.0 16.1 0.00 0.00 0.03 98 1012.6
20260507110517 15 342 4.8 16.1 0.00 0.00 0.03 97 1012.6
20260507110017 16 309 0.0 14.5 0.00 0.00 0.03 97 1012.6
20260507105517 16 337 11.3 24.1 0.00 0.00 0.03 97 1012.8
20260507105018 16 291 14.5 16.1 0.00 0.00 0.03 97 1012.9
20260507104518 16 38 4.8 17.7 0.00 0.00 0.03 97 1012.3
20260507104017 16 346 0.0 12.9 0.00 0.00 0.03 97 1012.1
20260507103517 16 37 4.8 9.7 0.00 0.00 0.03 97 1011.8
20260507103017 16 350 0.0 6.4 0.00 0.00 0.03 97 1011.8
20260507102517 16 16 1.6 12.9 0.00 0.00 0.03 97 1011.7
20260507102017 17 11 11.3 16.1 0.00 0.00 0.03 97 1011.6
20260507101518 17 329 4.8 17.7 0.00 0.00 0.03 97 1011.7
20260507101017 17 353 4.8 14.5 0.00 0.00 0.03 97 1011.6
20260507100517 17 323 4.8 17.7 0.00 0.00 0.03 97 1011.2
20260507100018 18 291 4.8 12.9 0.00 0.00 0.03 97 1011.2
20260507095517 18 329 6.4 8.0 0.00 0.00 0.03 98 1011.1
20260507095017 18 0 0.0 0.0 0.00 0.00 0.03 98 1011.0
20260507094518 18 323 0.0 8.0 0.00 0.00 0.03 98 1011.0
20260507094017 18 16 0.0 8.0 0.00 0.00 0.03 98 1011.1
20260507093518 18 18 1.6 1.6 0.00 0.00 0.03 98 1011.3
20260507093017 18 330 0.0 14.5 0.00 0.00 0.03 98 1011.3
20260507092517 18 11 0.0 1.6 0.00 0.00 0.03 98 1011.2
20260507092017 18 0 0.0 0.0 0.00 0.00 0.03 98 1011.2
20260507091517 18 18 0.0 1.6 0.00 0.00 0.03 98 1011.2
20260507091017 18 86 0.0 4.8 0.00 0.00 0.03 98 1011.2
20260507090517 18 347 0.0 3.2 0.00 0.00 0.03 97 1011.2
20260507090017 18 0 0.0 0.0 0.00 0.00 0.03 97 1011.1
20260507085518 18 0 0.0 0.0 0.00 0.00 0.03 97 1011.2
20260507085017 18 30 0.0 3.2 0.00 0.00 0.03 97 1011.0
20260507084517 18 82 0.0 3.2 0.00 0.00 0.03 97 1011.0
20260507084017 18 96 3.2 9.7 0.00 0.00 0.00 97 1011.2
20260507083517 18 85 0.0 8.0 0.00 0.00 0.00 97 1010.8
20260507083018 18 0 0.0 0.0 0.00 0.00 0.00 97 1010.8
20260507082517 18 0 0.0 0.0 0.00 0.00 0.00 97 1010.6
20260507082017 18 90 0.0 11.3 0.00 0.00 0.00 97 1010.7
20260507081517 18 322 0.0 3.2 0.00 0.00 0.00 97 1010.6
20260507081017 18 20 0.0 12.9 0.00 0.00 0.00 97 1010.9
20260507080517 18 4 0.0 6.4 0.00 0.00 0.00 97 1010.9
20260507080017 18 34 0.0 8.0 0.00 0.00 0.00 97 1010.9
20260507075517 18 107 1.6 3.2 0.00 0.00 0.00 97 1010.9
20260507075017 18 102 0.0 4.8 0.00 0.00 0.00 97 1010.9
20260507074517 19 88 1.6 9.7 0.00 0.00 0.00 97 1011.0
20260507074018 18 100 6.4 4.8 0.00 0.00 0.00 97 1010.9
20260507073517 19 102 1.6 12.9 0.00 0.00 0.00 97 1011.2
20260507073017 19 85 1.6 6.4 0.00 0.00 0.00 97 1011.0
20260507072517 19 76 0.0 6.4 0.00 0.00 0.00 97 1011.1
20260507072017 19 73 1.6 6.4 0.00 0.00 0.00 97 1010.9
20260507071517 19 112 1.6 8.0 0.00 0.00 0.00 97 1010.5
20260507071017 19 25 0.0 3.2 0.00 0.00 0.00 97 1010.6
20260507070517 19 117 1.6 9.7 0.00 0.00 0.00 97 1010.4
20260507070017 19 95 1.6 6.4 0.00 0.00 0.00 97 1010.4
20260507065517 19 349 0.0 8.0 0.00 0.00 0.00 97 1011.0
20260507065016 19 346 8.0 8.0 0.00 0.00 0.00 97 1010.7
20260507064517 19 89 3.2 6.4 0.00 0.00 0.00 97 1011.5
20260507064017 19 127 4.8 4.8 0.00 0.00 0.00 97 1011.7
20260507063518 19 79 0.0 6.4 0.00 0.00 0.00 97 1011.6
20260507063017 19 106 6.4 4.8 0.00 0.00 0.00 97 1011.6
20260507062517 19 82 1.6 6.4 0.00 0.00 0.00 97 1011.6
20260507062017 19 28 1.6 1.6 0.00 0.00 0.00 97 1011.8
20260507061517 19 64 0.0 8.0 0.00 0.00 0.00 97 1012.0
20260507061017 19 114 0.0 4.8 0.00 0.00 0.00 97 1012.0
20260507060517 19 89 1.6 9.7 0.00 0.00 0.00 97 1011.8
20260507060017 19 92 0.0 6.4 0.00 0.00 0.00 97 1012.1
20260507055517 19 93 1.6 6.4 0.00 0.00 0.00 97 1011.8
20260507055018 19 102 1.6 6.4 0.00 0.00 0.00 97 1012.1
20260507054517 19 95 0.0 6.4 0.00 0.00 0.00 97 1012.5
20260507054017 19 80 0.0 1.6 0.00 0.00 0.00 97 1012.8
20260507053518 19 112 0.0 1.6 0.00 0.00 0.00 97 1012.7
20260507053017 19 92 0.0 3.2 0.00 0.00 0.00 97 1012.7
20260507052517 19 99 1.6 1.6 0.00 0.00 0.00 97 1012.7
20260507052017 19 356 0.0 1.6 0.00 0.00 0.00 97 1012.7
20260507051518 19 131 0.0 4.8 0.00 0.00 0.00 97 1012.6
20260507051017 19 80 3.2 11.3 0.00 0.00 0.00 97 1012.4
20260507050517 19 79 6.4 4.8 0.00 0.00 0.00 97 1012.6
20260507050017 19 23 1.6 6.4 0.00 0.00 0.00 97 1012.3
20260507045517 19 356 0.0 6.4 0.00 0.00 0.00 97 1012.2
20260507045017 19 14 3.2 6.4 0.00 0.00 0.00 97 1012.3
20260507044517 20 18 0.0 6.4 0.00 0.00 0.00 97 1012.3
20260507044017 20 349 0.0 6.4 0.00 0.00 0.00 97 1012.4
20260507043517 20 28 0.0 3.2 0.00 0.00 0.00 97 1012.8
20260507043018 20 78 0.0 6.4 0.00 0.00 0.00 97 1012.6
20260507042517 20 96 0.0 4.8 0.00 0.00 0.00 97 1012.8
20260507042018 20 110 0.0 6.4 0.00 0.00 0.00 97 1013.1
20260507041517 20 79 0.0 6.4 0.00 0.00 0.00 97 1013.1
20260507041017 20 49 0.0 4.8 0.00 0.00 0.00 97 1012.9
20260507040517 20 82 3.2 8.0 0.00 0.00 0.00 97 1012.7
20260507040017 20 107 6.4 8.0 0.00 0.00 0.00 97 1012.6
20260507035517 20 78 6.4 11.3 0.00 0.00 0.00 97 1011.8
20260507035017 20 0 4.8 0.0 0.00 0.00 0.00 97 1012.7
20260507034517 20 0 0.0 0.0 0.00 0.00 0.00 97 1012.9
20260507034017 20 346 0.0 6.4 0.00 0.00 0.00 97 1013.0
20260507033517 20 96 0.0 4.8 0.00 0.00 0.00 96 1012.3
20260507033018 20 96 1.6 8.0 0.00 0.00 0.00 96 1012.2
20260507032517 20 72 3.2 8.0 0.00 0.00 0.00 96 1011.5
20260507032017 20 90 1.6 6.4 0.00 0.00 0.00 96 1012.4
20260507031517 20 97 6.4 8.0 0.00 0.00 0.00 96 1013.2
20260507031018 20 0 0.0 0.0 0.00 0.00 0.00 96 1013.9
20260507030517 20 0 0.0 0.0 0.00 0.00 0.00 96 1014.1
20260507030017 20 330 0.0 3.2 0.00 0.00 0.00 96 1013.8
20260507025517 20 157 1.6 4.8 0.00 0.00 0.00 96 1013.1
20260507025017 20 0 0.0 0.0 0.00 0.00 0.00 96 1013.6
20260507024518 20 89 0.0 6.4 0.00 0.00 0.00 96 1013.3
20260507024017 20 75 4.8 6.4 0.00 0.00 0.00 96 1013.1
20260507023516 20 86 1.6 11.3 0.00 0.00 0.00 96 1012.7
20260507023017 20 16 6.4 11.3 0.00 0.00 0.00 96 1012.6
20260507022517 20 68 3.2 12.9 0.00 0.00 0.00 96 1012.7
20260507022017 20 123 0.0 11.3 0.00 0.00 0.00 96 1012.7
20260507021523 20 85 4.8 11.3 0.00 0.00 0.00 96 1012.8
20260507021017 20 25 3.2 19.3 0.00 0.00 0.00 96 1012.8
20260507020517 20 85 4.8 14.5 0.00 0.00 0.00 96 1012.5
20260507020017 21 25 4.8 24.1 0.00 0.00 0.00 96 1012.5
20260507015517 21 349 4.8 11.3 0.00 0.00 0.00 96 1013.0
20260507015017 21 328 4.8 14.5 0.00 0.00 0.00 96 1012.7
20260507014518 22 27 9.7 9.7 0.00 0.00 0.00 96 1012.7
20260507014017 22 20 6.4 17.7 0.00 0.00 0.00 96 1012.5
20260507013517 22 3 6.4 4.8 0.00 0.00 0.00 97 1012.1
20260507013017 22 0 0.0 0.0 0.00 0.00 0.00 97 1011.8
20260507012518 22 0 0.0 0.0 0.00 0.00 0.00 97 1012.1
20260507012017 22 0 0.0 0.0 0.00 0.00 0.00 97 1011.8
20260507011518 22 0 0.0 0.0 0.00 0.00 0.00 97 1012.1
20260507011017 22 0 0.0 0.0 0.00 0.00 0.00 97 1011.5
20260507010517 22 23 0.0 0.0 0.00 0.00 0.00 97 1011.1
20260507010017 22 0 0.0 0.0 0.00 0.00 0.00 97 1011.5
20260507005517 22 233 0.0 0.0 0.00 0.00 0.00 96 1011.4
20260507005017 22 274 0.0 3.2 0.00 0.00 0.00 96 1011.8
20260507004517 22 0 1.6 0.0 0.00 0.00 0.00 96 1012.0
20260507004018 22 216 0.0 1.6 0.00 0.00 0.00 96 1012.1
20260507003517 22 232 0.0 1.6 0.00 0.00 0.00 96 1012.0
20260507003017 22 0 0.0 0.0 0.00 0.00 0.00 96 1011.7
20260507002517 22 215 0.0 1.6 0.00 0.00 0.00 96 1011.5
20260507002017 22 0 0.0 0.0 0.00 0.00 0.00 96 1011.5
20260507001517 22 196 0.0 8.0 0.00 0.00 0.00 96 1011.7
20260507001018 22 260 0.0 3.2 0.00 0.00 0.00 96 1011.8
20260507000517 23 359 0.0 0.0 0.00 0.00 0.00 96 1012.0
20260507000017 23 0 0.0 0.0 0.00 0.00 0.00 96 1011.6
20260506235518 22 284 0.0 3.2 0.00 0.00 0.00 96 1011.8
20260506235017 23 260 1.6 4.8 0.00 0.00 0.00 96 1011.7
20260506234518 22 0 0.0 0.0 0.00 0.00 0.00 96 1011.4
20260506234018 22 240 0.0 3.2 0.00 0.00 0.00 96 1011.7
20260506233517 23 275 1.6 3.2 0.00 0.00 0.00 96 1012.1
20260506233018 22 198 0.0 4.8 0.00 0.00 0.00 96 1012.0
20260506232517 22 236 1.6 4.8 0.00 0.00 0.00 96 1012.1
20260506232017 23 203 0.0 6.4 0.00 0.00 0.00 96 1012.4
20260506231517 22 198 3.2 9.7 0.00 0.00 0.00 96 1012.5
20260506231018 23 192 4.8 6.4 0.00 0.00 0.00 96 1012.5
20260506230517 22 226 0.0 4.8 0.00 0.00 0.00 96 1012.5
20260506230017 22 270 1.6 4.8 0.00 0.00 0.00 96 1012.6
20260506225517 22 189 1.6 6.4 0.00 0.00 0.00 96 1012.5
20260506225017 22 217 3.2 8.0 0.00 0.00 0.00 96 1012.4
20260506224517 22 222 0.0 1.6 0.00 0.00 0.00 96 1012.4
20260506224017 22 257 0.0 4.8 0.00 0.00 0.00 96 1012.3
20260506223517 22 196 1.6 9.7 0.00 0.00 0.00 96 1012.0
20260506223017 22 195 4.8 11.3 0.00 0.00 0.00 96 1012.1
20260506222518 22 212 3.2 6.4 0.00 0.00 0.00 96 1012.2
20260506222017 22 230 1.6 4.8 0.00 0.00 0.00 96 1012.2
20260506221517 22 186 1.6 11.3 0.00 0.00 0.00 96 1012.2
20260506221017 22 227 0.0 1.6 0.00 0.00 0.00 96 1012.3
20260506220518 22 215 0.0 6.4 0.00 0.00 0.00 96 1012.4
20260506220017 22 263 3.2 6.4 0.00 0.00 0.00 96 1012.4
20260506215517 22 237 3.2 4.8 0.00 0.00 0.00 96 1012.4
20260506215017 22 227 0.0 6.4 0.00 0.00 0.00 96 1012.4
20260506214517 22 196 4.8 11.3 0.00 0.00 0.00 96 1012.5
20260506214017 22 189 1.6 14.5 0.00 0.00 0.00 95 1012.5
20260506213517 22 200 1.6 11.3 0.00 0.00 0.00 95 1012.4
20260506213017 22 227 1.6 8.0 0.00 0.00 0.00 95 1012.4
20260506212517 22 198 3.2 4.8 0.00 0.00 0.00 95 1012.5
20260506212017 22 191 4.8 11.3 0.00 0.00 0.00 95 1012.6
20260506211517 22 196 4.8 11.3 0.00 0.00 0.00 94 1012.6
20260506211018 22 213 3.2 8.0 0.00 0.00 0.00 93 1012.6
20260506210517 23 189 6.4 9.7 0.00 0.00 0.00 93 1012.7
20260506210017 23 199 0.0 4.8 0.00 0.00 0.00 92 1012.8
20260506205517 23 198 0.0 8.0 0.00 0.00 0.00 91 1012.8
20260506205017 23 203 4.8 9.7 0.00 0.00 0.00 90 1012.9
20260506204517 23 299 6.4 4.8 0.00 0.00 0.00 88 1012.8
20260506204017 23 261 0.0 4.8 0.00 0.00 0.00 86 1012.7
20260506203517 23 271 4.8 4.8 0.00 0.00 0.00 85 1012.7
20260506203017 24 227 3.2 6.4 0.00 0.00 0.00 83 1012.8
20260506202518 24 195 3.2 6.4 0.00 0.00 0.00 81 1012.9
20260506202017 24 226 4.8 9.7 0.00 0.00 0.00 80 1012.9
20260506201523 25 208 1.6 6.4 0.00 0.00 0.00 80 1013.0
20260506201017 25 193 1.6 12.9 0.00 0.00 0.00 80 1013.0
20260506200517 25 196 6.4 11.3 0.00 0.00 0.00 79 1013.1
20260506200017 25 206 3.2 12.9 0.00 0.00 0.00 78 1013.1